Flag for U.S.A. Weather past 2 weeks in West Palm Beach, Florida, U.S.A.

Now
86 °F

Broken clouds.


Feels Like: 97 °F
Forecast: 76 / 86 °F
Wind: 5 mph from Southwest

Location: Palm Beach International Airport

Current Time: Oct 1, 2014 at 4:32:33 PM

Latest Report: Oct 1, 2014 at 3:53 PM


Visibility: 10 mi

Pressure: 29.88 "Hg

Humidity: 75%

Dew point: 77 °F

Location of West Palm BeachLocation

Historic Weather in West Palm Beach — Graph

°F

West Palm Beach temperature yesterday

Maximum temperature yesterday: 90 °F (at 12:53 PM)
Minimum temperature yesterday: 75 °F (at 12:53 AM)
Average temperature yesterday: 80 °F

Past Weeks' High & Low Weather Summary

 TemperatureHumidityPressure
High90 °F (Sep 30, 12:53 PM)100% (Sep 26, 6:53 AM)30.06 "Hg (Sep 26, 6:53 AM)
Low73 °F (Sep 18, 6:53 AM)55% (Sep 17, 12:53 PM)29.80 "Hg (Sep 30, 3:53 PM)
Average80 °F83%29.94 "Hg
* Reported Sep 16 2:53 PM — Oct 1 2:53 PM, West Palm Beach, Weather by CustomWeather, © 2014

Note: Actual official high and low records may vary slightly from our data, if they occured in-between our weather recording intervals... More about our weather records

Advertising

West Palm Beach weather history for previous 24 hours

 ConditionsComfort  
Time TempWeatherWind HumidityBarometerVisibility
2:53 PM
Oct 1
79 °FBroken clouds.5 mph88%29.90 "Hg10 mi
2:01 PM75 °FStrong thunderstorms. Fog.6 mph89%29.92 "Hg6 mi
12:53 PM88 °FLight rain. Broken clouds.No wind70%29.92 "Hg10 mi
11:53 AM88 °FScattered clouds.9 mph65%29.93 "Hg10 mi
10:53 AM86 °FScattered clouds.10 mph72%29.94 "Hg10 mi
9:53 AM83 °FBroken clouds.7 mph82%29.94 "Hg10 mi
8:53 AM81 °FScattered clouds.6 mph91%29.93 "Hg10 mi
7:53 AM78 °FPassing clouds.7 mph93%29.90 "Hg10 mi
6:53 AM76 °FPassing clouds.No wind97%29.88 "Hg10 mi
5:53 AM76 °FClear.No wind97%29.87 "Hg10 mi
4:53 AM76 °FClear.No wind97%29.85 "Hg10 mi
3:53 AM76 °FClear.3 mph97%29.85 "Hg10 mi
2:53 AM77 °FClear.No wind94%29.86 "Hg10 mi
1:53 AM77 °FClear.5 mph94%29.86 "Hg10 mi
12:53 AM76 °FPassing clouds.No wind97%29.87 "Hg10 mi
11:53 PM
Sep 30
77 °FPassing clouds.5 mph94%29.86 "Hg10 mi
10:53 PM78 °FPassing clouds.No wind93%29.87 "Hg10 mi
9:53 PM77 °FPassing clouds.No wind94%29.85 "Hg10 mi
8:53 PM77 °FPassing clouds.3 mph96%29.85 "Hg10 mi
7:53 PM77 °FThunderstorms. Partly sunny.9 mph90%29.85 "Hg10 mi
6:53 PM79 °FThunderstorms. Partly sunny.3 mph88%29.82 "Hg10 mi
5:53 PM82 °FThunderstorms. Broken clouds.17 mph79%29.81 "Hg10 mi
4:53 PM87 °FBroken clouds.10 mph65%29.81 "Hg10 mi
Weather by CustomWeather, © 2014

See weather overviewHow to use our weather pages